Погода в Яштуге

Россия / Республика Марий Эл     56°04′19″N   46°13′34″E
темп.,
°C
ветер,
м/с
пор.,
м/с
влажн.,
%
обл.,
%
осадки,
мм/ч
давл.,
гПа
погр.,
м
28 ноября, вс
вс2800:00−3ююв61681100 0.0 1014544
03:00−2ю71794100 0.3 1011700
06:000ю61595100 1.1 1009712
09:00+1ю61498100 1.5 1009637
12:00+1ю61399100 0.0 1009520
15:00+1ю51299100 0.0 1010456
18:00+1ююз51299100 0.0 1010372
21:00+1ююз41099100 0.1 1012479
29 ноября, пн
пн2900:00+1юз41099100 0.2 1013408
03:00+1ююз2799100 0.2 1014255
06:00+1ююв23100100 0.0 1014101
09:00+1юв25100100 0.1 1014136
12:00+2юв38100100 0.0 1013222
15:00+2вюв41099100 0.1 1010253
18:00+2юв51399100 2.9 1007311
21:00+2юв51499100 5.5 1004559
30 ноября, вт
вт3000:00+3ююв51499100 0.9 1001484
03:00+3юв61699100 2.0 996406
06:00+4ююв71895100 5.1 990867
09:00+5ю91993100 9.3 986838
12:00+7ю102092100 1.5 9831065
15:00+8ююз9177833 2.1 9801059
18:00+3ююз112183100 0.2 9811514
21:00+2ююз122396100 3.1 9811330
1 декабря, ср
ср100:00+2юз112082100 0.2 9851194
03:00+1юз91775100 0.2 9891240
06:00+1ююз71375100 0.0 9901127
09:000ююз51181100 0.0 991784
12:000юз5984100 0.1 990811
15:00−1юз3683100 0.1 990456
18:00−1зюз388466 0.0 990596
21:00−3зюз4108634 0.0 991536
2 декабря, чт
чт200:00−3зюз5108999 0.0 992661
03:00−3юз598897 0.1 993864
06:00−4зюз498345 0.1 995623
09:00−3зюз598396 0.1 998859
12:00−3з697497 0.1 10001046
15:00−4юз477592 0.1 1001659
18:00−3юз51073100 0.0 1002694
21:00−3ююз5119294 0.1 1001576